Location: Peterborough
(44.3091°N, 78.3197°W)
Time: 17:24:14
(UTC-04:00)

Envisat - Visible Passes

Search period start: 16 April 2026 00:00
Search period end: 26 April 2026 00:00
Orbit: 761 x 762 km, 98.4° (Epoch: 16 April)

Date Brightness Start Highest point End Pass type
(mag) Time Alt. Az. Time Alt. Az. Time Alt. Az.
16 Apr 3.8 03:24:50 10° NNE 03:29:41 43° E 03:30:29 40° SE visible
16 Apr 4.2 05:04:15 10° N 05:08:21 25° WNW 05:10:37 18° W visible
17 Apr 4.9 02:47:54 10° NE 02:51:35 20° E 02:52:20 19° ESE visible
17 Apr 3.2 04:25:53 10° N 04:30:49 52° WNW 04:32:27 37° WSW visible
18 Apr 3.1 03:47:59 10° NNE 03:53:04 72° ESE 03:54:18 50° S visible
18 Apr 4.7 05:28:18 10° NNW 05:31:24 17° WNW 05:34:26 10° W visible
19 Apr 4.3 03:10:34 10° NNE 03:15:06 32° E 03:16:09 30° ESE visible
19 Apr 3.8 04:49:29 10° N 04:53:59 33° WNW 04:56:17 22° WSW visible
20 Apr 5.3 02:34:07 10° NE 02:36:55 15° E 02:37:59 14° ESE visible
20 Apr 2.9 04:11:18 10° N 04:16:22 71° WNW 04:18:07 41° SW visible
20 Apr 5.1 05:53:29 10° NW 05:54:21 10° NW 05:55:13 10° WNW visible
21 Apr 3.5 03:33:34 10° NNE 03:38:32 53° E 03:39:57 40° SSE visible
21 Apr 4.4 05:13:18 10° NNW 05:17:05 21° WNW 05:20:04 13° WSW visible
22 Apr 4.7 02:56:24 10° NE 03:00:29 24° E 03:01:46 22° ESE visible
22 Apr 3.5 04:34:48 10° N 04:39:35 44° WNW 04:41:55 27° WSW visible
23 Apr 5.6 02:21:18 10° ENE 02:22:14 10° E 02:23:09 10° E visible
23 Apr 2.9 03:56:47 10° NNE 04:01:53 86° ESE 04:03:44 40° S visible
23 Apr 4.9 05:37:34 10° NNW 05:40:06 14° WNW 05:42:36 10° W visible
24 Apr 4.0 03:19:14 10° NNE 03:23:58 39° E 03:25:35 31° SE visible
24 Apr 4.1 04:58:28 10° N 05:02:43 28° WNW 05:05:42 16° WSW visible
25 Apr 5.1 02:42:26 10° NE 02:45:51 18° E 02:47:24 16° ESE visible
25 Apr 3.1 04:20:10 10° N 04:25:10 59° WNW 04:27:32 30° SW visible
